Location: Newark
(55.8372°N, 37.1596°E)
Time: 01:35:07
(UTC+00:00)

Envisat - Pass Details

Date: 23 October 2019
Orbit: 764 x 766 km, 98.1° (Epoch: 14 November)

Event Time Altitude Azimuth Distance (km) Brightness Sun altitude
Rises 15:40:05 0° 175° (S) 3,224 6.2 -12.9°
Reaches altitude 10° 15:42:25 10° 179° (S) 2,302 5.5 -13.2°
Maximum altitude 15:47:25 59° 259° (WSW) 890 3.7 -13.9°
Drops below altitude 10° 15:52:28 10° 339° (NNW) 2,317 5.8 -14.6°
Sets 15:54:50 0° 343° (NNW) 3,248 6.5 -14.9°
